QPF
0.00 0.00 0.00 0.00 0.00 0.00 0.00 0.00 0.00 0.00 0.00 0.00 0.00 0.00 0.00 0.00 0.00 0.00 0.01 0.01 0.00 0.00 0.01 0.01 0.01 0.01 0.03 0.03 0.03 0.04 0.04 0.04 0.02 0.02 0.02 0.03 0.04 0.04 0.04 0.05 0.04 0.04 0.04 0.04
0.00 0.00 0.00 0.00 0.00 0.00 0.00 0.00 0.00 0.00 0.00 0.00 0.00 0.00 0.00 0.00 0.00 0.00 0.00 0.01 0.01 0.01 0.01 0.01 0.00 0.00 0.02 0.02 0.03 0.05 0.03 0.06 0.03 0.02 0.03 0.03 0.04 0.04 0.05 0.03 0.03 0.02 0.02 0.03
0.00 0.00 0.00 0.00 0.00 0.00 0.00 0.00 0.00 0.00 0.00 0.00 0.00 0.00 0.00 0.00 0.00 0.00 0.00 0.01 0.00 0.00 0.01 0.01 0.00 0.00 0.00 0.01 0.01 0.01 0.02 0.02 0.02 0.02 0.04 0.05 0.05 0.05 0.04 0.04 0.03 0.02 0.02 0.03
0.00 0.00 0.00 0.00 0.00 0.00 0.00 0.00 0.00 0.00 0.00 0.00 0.00 0.00 0.00 0.00 0.00 0.01 0.01 0.01 0.01 0.00 0.00 0.00 0.00 0.00 0.00 0.00 0.01 0.01 0.01 0.01 0.01 0.02 0.05 0.07 0.08 0.08 0.07 0.05 0.05 0.05 0.04 0.04
0.00 0.00 0.00 0.00 0.00 0.00 0.00 0.00 0.00 0.00 0.00 0.00 0.00 0.00 0.00 0.00 0.00 0.00 0.00 0.00 0.00 0.00 0.00 0.00 0.00 0.00 0.00 0.00 0.01 0.01 0.02 0.03 0.02 0.03 0.04 0.05 0.08 0.08 0.08 0.06 0.05 0.05 0.04 0.03
0.00 0.00 0.00 0.00 0.00 0.00 0.00 0.00 0.00 0.00 0.00 0.01 0.00 0.00 0.00 0.00 0.00 0.00 0.00 0.00 0.00 0.00 0.00 0.00 0.00 0.00 0.00 0.00 0.01 0.01 0.02 0.04 0.05 0.04 0.04 0.03 0.05 0.06 0.07 0.09 0.07 0.05 0.04 0.04
0.00 0.00 0.00 0.00 0.00 0.00 0.00 0.00 0.01 0.01 0.00 0.00 0.00 0.00 0.00 0.00 0.00 0.00 0.00 0.00 0.00 0.00 0.00 0.01 0.00 0.00 0.00 0.00 0.01 0.02 0.03 0.04 0.04 0.04 0.03 0.03 0.04 0.04 0.04 0.06 0.11 0.10 0.07 0.05
0.00 0.00 0.00 0.00 0.00 0.00 0.00 0.00 0.01 0.01 0.00 0.00 0.00 0.00 0.00 0.00 0.00 0.00 0.00 0.00 0.00 0.00 0.00 0.00 0.00 0.01 0.01 0.01 0.01 0.02 0.03 0.03 0.02 0.02 0.02 0.02 0.03 0.03 0.03 0.03 0.04 0.08 0.10 0.09
0.00 0.00 0.00 0.00 0.00 0.00 0.00 0.00 0.00 0.00 0.00 0.00 0.00 0.00 0.00 0.00 0.00 0.00 0.00 0.00 0.01 0.00 0.01 0.00 0.00 0.01 0.01 0.02 0.02 0.05 0.09 0.05 0.02 0.02 0.03 0.03 0.03 0.02 0.02 0.02 0.02 0.03 0.04 0.06
0.00 0.00 0.00 0.00 0.00 0.00 0.00 0.00 0.00 0.00 0.01 0.00 0.00 0.00 0.00 0.00 0.00 0.00 0.00 0.00 0.01 0.00 0.00 0.00 0.00 0.01 0.01 0.02 0.03 0.06 0.05 0.02 0.01 0.01 0.02 0.02 0.02 0.02 0.01 0.01 0.01 0.02 0.03 0.03
0.00 0.00 0.00 0.00 0.00 0.00 0.00 0.00 0.00 0.00 0.01 0.00 0.00 0.00 0.00 0.00 0.00 0.00 0.00 0.00 0.00 0.00 0.00 0.00 0.00 0.00 0.01 0.01 0.01 0.02 0.02 0.01 0.01 0.01 0.01 0.02 0.02 0.01 0.01 0.02 0.03 0.04 0.03 0.03
0.00 0.00 0.00 0.00 0.00 0.00 0.00 0.00 0.00 0.00 0.00 0.00 0.00 0.00 0.00 0.00 0.00 0.00 0.00 0.00 0.00 0.00 0.00 0.00 0.00 0.00 0.00 0.00 0.00 0.01 0.01 0.01 0.01 0.01 0.01 0.01 0.02 0.01 0.02 0.03 0.04 0.04 0.04 0.04
0.00 0.00 0.00 0.00 0.00 0.00 0.00 0.00 0.00 0.00 0.00 0.00 0.00 0.00 0.00 0.00 0.00 0.00 0.00 0.00 0.00 0.00 0.00 0.00 0.00 0.00 0.00 0.00 0.00 0.00 0.00 0.01 0.00 0.00 0.00 0.01 0.01 0.01 0.01 0.02 0.04 0.04 0.03 0.02
0.00 0.00 0.00 0.00 0.00 0.00 0.00 0.00 0.00 0.00 0.00 0.00 0.00 0.00 0.00 0.00 0.00 0.00 0.00 0.00 0.00 0.00 0.00 0.00 0.00 0.00 0.00 0.00 0.00 0.00 0.00 0.00 0.00 0.00 0.00 0.00 0.00 0.01 0.01 0.01 0.02 0.03 0.02 0.02
0.00 0.00 0.00 0.00 0.00 0.00 0.00 0.00 0.00 0.00 0.00 0.00 0.00 0.00 0.00 0.00 0.00 0.00 0.00 0.00 0.00 0.00 0.00 0.00 0.00 0.00 0.00 0.01 0.01 0.00 0.00 0.00 0.00 0.00 0.00 0.00 0.01 0.01 0.01 0.01 0.01 0.01 0.01 0.01
0.00 0.00 0.00 0.00 0.00 0.00 0.00 0.00 0.00 0.00 0.00 0.00 0.00 0.00 0.00 0.00 0.00 0.00 0.00 0.00 0.00 0.00 0.00 0.00 0.00 0.00 0.01 0.01 0.01 0.01 0.01 0.00 0.00 0.00 0.01 0.01 0.01 0.01 0.01 0.01 0.02 0.02 0.02 0.02
0.00 0.00 0.00 0.00 0.00 0.00 0.00 0.00 0.00 0.00 0.00 0.00 0.00 0.00 0.00 0.00 0.00 0.00 0.00 0.00 0.00 0.00 0.00 0.00 0.00 0.00 0.00 0.00 0.00 0.01 0.01 0.01 0.00 0.00 0.01 0.01 0.01 0.01 0.01 0.01 0.02 0.02 0.03 0.03
0.00 0.00 0.00 0.00 0.00 0.00 0.00 0.00 0.00 0.00 0.00 0.00 0.00 0.00 0.00 0.00 0.00 0.00 0.00 0.00 0.00 0.00 0.00 0.00 0.00 0.00 0.00 0.00 0.01 0.01 0.01 0.01 0.01 0.01 0.01 0.01 0.01 0.01 0.01 0.01 0.02 0.03 0.03 0.03
0.00 0.00 0.00 0.00 0.00 0.00 0.00 0.00 0.00 0.00 0.00 0.00 0.00 0.00 0.00 0.00 0.00 0.00 0.00 0.00 0.00 0.00 0.00 0.00 0.00 0.00 0.00 0.01 0.00 0.01 0.00 0.00 0.01 0.01 0.02 0.02 0.03 0.03 0.03 0.02 0.03 0.04 0.04 0.04
0.00 0.00 0.00 0.00 0.00 0.00 0.00 0.00 0.00 0.00 0.00 0.00 0.00 0.00 0.00 0.00 0.00 0.00 0.00 0.00 0.00 0.00 0.00 0.01 0.00 0.00 0.00 0.00 0.00 0.00 0.00 0.00 0.01 0.01 0.01 0.01 0.02 0.03 0.04 0.03 0.03 0.03 0.05 0.05
0.00 0.00 0.00 0.00 0.00 0.00 0.00 0.00 0.00 0.01 0.02 0.01 0.00 0.00 0.00 0.00 0.00 0.00 0.00 0.01 0.00 0.00 0.00 0.01 0.01 0.01 0.01 0.00 0.01 0.00 0.01 0.00 0.01 0.01 0.01 0.01 0.01 0.01 0.02 0.02 0.01 0.02 0.02 0.03
0.01 0.00 0.00 0.00 0.01 0.01 0.01 0.01 0.01 0.01 0.01 0.00 0.00 0.00 0.00 0.00 0.00 0.00 0.01 0.02 0.01 0.00 0.00 0.01 0.01 0.01 0.01 0.01 0.01 0.01 0.01 0.01 0.01 0.02 0.02 0.02 0.02 0.01 0.01 0.02 0.02 0.02 0.01 0.01
0.01 0.00 0.00 0.00 0.01 0.02 0.01 0.01 0.01 0.00 0.00 0.00 0.00 0.00 0.00 0.00 0.00 0.00 0.00 0.01 0.01 0.00 0.01 0.01 0.01 0.01 0.00 0.01 0.01 0.01 0.01 0.01 0.01 0.01 0.01 0.02 0.02 0.02 0.02 0.03 0.03 0.02 0.02 0.02
0.01 0.01 0.01 0.00 0.01 0.01 0.01 0.00 0.00 0.00 0.00 0.00 0.00 0.00 0.00 0.00 0.00 0.00 0.00 0.00 0.00 0.00 0.00 0.01 0.01 0.01 0.01 0.01 0.01 0.01 0.01 0.01 0.01 0.01 0.01 0.01 0.02 0.03 0.02 0.02 0.02 0.02 0.02 0.02
0.01 0.01 0.01 0.01 0.01 0.01 0.00 0.00 0.00 0.00 0.00 0.00 0.00 0.00 0.00 0.00 0.00 0.00 0.01 0.01 0.01 0.01 0.01 0.01 0.01 0.01 0.01 0.01 0.01 0.01 0.01 0.01 0.01 0.01 0.01 0.01 0.02 0.02 0.02 0.02 0.02 0.02 0.02 0.03
0.02 0.02 0.02 0.02 0.02 0.01 0.01 0.01 0.00 0.00 0.00 0.00 0.00 0.00 0.00 0.00 0.00 0.01 0.01 0.01 0.01 0.01 0.01 0.01 0.01 0.01 0.01 0.01 0.01 0.01 0.01 0.01 0.01 0.01 0.01 0.01 0.01 0.01 0.02 0.02 0.02 0.02 0.02 0.02
MSLP
1008.35 1008.90 1009.40 1009.86 1010.30 1010.74 1011.17 1011.58 1011.92 1012.16 1012.26 1012.20 1011.99 1011.65 1011.25 1010.84 1010.49 1010.23 1010.08 1010.03 1010.04 1010.08 1010.11 1010.12 1010.11 1010.11 1010.13 1010.23 1010.41 1010.68 1011.02 1011.39 1011.73 1012.01 1012.20 1012.29 1012.29 1012.24 1012.17 1012.11 1012.10 1012.14 1012.21 1012.30
1008.75 1009.15 1009.48 1009.78 1010.10 1010.46 1010.88 1011.33 1011.75 1012.09 1012.27 1012.26 1012.06 1011.69 1011.20 1010.67 1010.17 1009.77 1009.49 1009.33 1009.27 1009.28 1009.31 1009.33 1009.35 1009.37 1009.41 1009.52 1009.71 1009.99 1010.34 1010.72 1011.09 1011.41 1011.64 1011.77 1011.80 1011.77 1011.70 1011.63 1011.60 1011.61 1011.65 1011.73
1009.13 1009.37 1009.53 1009.68 1009.89 1010.19 1010.61 1011.10 1011.60 1012.03 1012.30 1012.35 1012.15 1011.74 1011.16 1010.51 1009.86 1009.30 1008.88 1008.61 1008.47 1008.43 1008.46 1008.50 1008.54 1008.59 1008.67 1008.79 1008.99 1009.27 1009.62 1010.02 1010.41 1010.76 1011.03 1011.20 1011.28 1011.28 1011.23 1011.18 1011.14 1011.14 1011.18 1011.24
1009.42 1009.54 1009.57 1009.61 1009.73 1009.99 1010.41 1010.96 1011.53 1012.05 1012.39 1012.48 1012.29 1011.83 1011.15 1010.36 1009.56 1008.84 1008.28 1007.89 1007.67 1007.60 1007.62 1007.68 1007.76 1007.85 1007.95 1008.10 1008.30 1008.57 1008.92 1009.31 1009.71 1010.08 1010.38 1010.60 1010.73 1010.77 1010.77 1010.75 1010.73 1010.74 1010.78 1010.85
1009.60 1009.64 1009.59 1009.56 1009.65 1009.91 1010.36 1010.95 1011.59 1012.16 1012.55 1012.66 1012.45 1011.92 1011.15 1010.22 1009.27 1008.41 1007.71 1007.22 1006.94 1006.83 1006.86 1006.96 1007.08 1007.21 1007.35 1007.51 1007.70 1007.96 1008.27 1008.63 1009.01 1009.38 1009.70 1009.96 1010.13 1010.24 1010.29 1010.32 1010.35 1010.39 1010.45 1010.53
1009.63 1009.65 1009.58 1009.55 1009.65 1009.93 1010.42 1011.06 1011.75 1012.36 1012.76 1012.86 1012.60 1012.00 1011.12 1010.08 1009.00 1008.01 1007.21 1006.65 1006.32 1006.21 1006.26 1006.40 1006.57 1006.75 1006.92 1007.08 1007.26 1007.47 1007.73 1008.04 1008.38 1008.72 1009.03 1009.30 1009.52 1009.68 1009.79 1009.89 1009.97 1010.06 1010.16 1010.25
1009.49 1009.53 1009.51 1009.52 1009.68 1010.02 1010.56 1011.24 1011.95 1012.56 1012.95 1013.01 1012.69 1012.02 1011.06 1009.92 1008.75 1007.68 1006.82 1006.22 1005.89 1005.79 1005.88 1006.08 1006.31 1006.53 1006.72 1006.88 1007.02 1007.18 1007.37 1007.60 1007.86 1008.14 1008.42 1008.68 1008.92 1009.12 1009.30 1009.45 1009.60 1009.74 1009.88 1010.00
1009.16 1009.26 1009.33 1009.44 1009.68 1010.10 1010.69 1011.39 1012.11 1012.70 1013.04 1013.04 1012.67 1011.93 1010.91 1009.73 1008.52 1007.43 1006.56 1005.98 1005.68 1005.63 1005.78 1006.03 1006.32 1006.58 1006.79 1006.94 1007.05 1007.13 1007.23 1007.36 1007.52 1007.72 1007.94 1008.18 1008.41 1008.64 1008.85 1009.06 1009.26 1009.45 1009.63 1009.77
1008.65 1008.85 1009.02 1009.25 1009.59 1010.09 1010.73 1011.44 1012.13 1012.67 1012.95 1012.90 1012.48 1011.71 1010.68 1009.51 1008.33 1007.29 1006.47 1005.95 1005.72 1005.74 1005.96 1006.28 1006.62 1006.92 1007.14 1007.28 1007.34 1007.36 1007.36 1007.38 1007.45 1007.55 1007.70 1007.88 1008.08 1008.31 1008.55 1008.79 1009.02 1009.25 1009.46 1009.62
1008.03 1008.32 1008.61 1008.95 1009.39 1009.95 1010.61 1011.31 1011.94 1012.42 1012.64 1012.53 1012.09 1011.34 1010.35 1009.26 1008.18 1007.25 1006.55 1006.14 1006.01 1006.12 1006.41 1006.80 1007.18 1007.51 1007.74 1007.86 1007.89 1007.85 1007.78 1007.71 1007.68 1007.69 1007.76 1007.87 1008.04 1008.24 1008.47 1008.71 1008.97 1009.21 1009.43 1009.60
1007.35 1007.72 1008.12 1008.56 1009.08 1009.68 1010.33 1010.97 1011.54 1011.93 1012.08 1011.94 1011.51 1010.81 1009.94 1008.98 1008.08 1007.32 1006.78 1006.51 1006.50 1006.71 1007.08 1007.51 1007.93 1008.28 1008.51 1008.63 1008.64 1008.57 1008.46 1008.34 1008.24 1008.18 1008.18 1008.24 1008.35 1008.51 1008.70 1008.93 1009.17 1009.40 1009.61 1009.78
1006.71 1007.16 1007.64 1008.16 1008.72 1009.32 1009.93 1010.49 1010.95 1011.25 1011.33 1011.17 1010.77 1010.18 1009.46 1008.70 1008.01 1007.47 1007.13 1007.02 1007.14 1007.44 1007.86 1008.32 1008.76 1009.12 1009.37 1009.49 1009.51 1009.45 1009.33 1009.20 1009.08 1008.99 1008.95 1008.96 1009.02 1009.12 1009.27 1009.45 1009.65 1009.86 1010.04 1010.19
1006.21 1006.72 1007.26 1007.82 1008.39 1008.96 1009.49 1009.94 1010.28 1010.46 1010.47 1010.29 1009.95 1009.48 1008.95 1008.42 1007.97 1007.66 1007.54 1007.60 1007.84 1008.21 1008.66 1009.14 1009.57 1009.93 1010.19 1010.35 1010.40 1010.38 1010.31 1010.22 1010.12 1010.04 1009.99 1009.97 1009.99 1010.04 1010.13 1010.26 1010.40 1010.56 1010.70 1010.82
1005.92 1006.46 1007.04 1007.63 1008.18 1008.67 1009.09 1009.40 1009.59 1009.65 1009.58 1009.39 1009.10 1008.77 1008.43 1008.14 1007.95 1007.88 1007.96 1008.18 1008.52 1008.95 1009.42 1009.88 1010.30 1010.66 1010.93 1011.11 1011.22 1011.28 1011.29 1011.27 1011.24 1011.21 1011.18 1011.16 1011.15 1011.16 1011.19 1011.25 1011.33 1011.43 1011.52 1011.61
1005.84 1006.43 1007.03 1007.61 1008.11 1008.51 1008.79 1008.94 1008.97 1008.89 1008.73 1008.51 1008.29 1008.08 1007.93 1007.87 1007.92 1008.08 1008.35 1008.72 1009.14 1009.61 1010.07 1010.51 1010.91 1011.24 1011.52 1011.75 1011.93 1012.07 1012.18 1012.26 1012.33 1012.37 1012.38 1012.38 1012.36 1012.34 1012.32 1012.32 1012.33 1012.36 1012.41 1012.45
1005.96 1006.57 1007.19 1007.74 1008.17 1008.46 1008.58 1008.56 1008.42 1008.20 1007.94 1007.70 1007.52 1007.43 1007.45 1007.60 1007.87 1008.24 1008.69 1009.18 1009.68 1010.18 1010.63 1011.04 1011.40 1011.71 1011.99 1012.25 1012.49 1012.72 1012.93 1013.13 1013.29 1013.41 1013.48 1013.51 1013.49 1013.45 1013.38 1013.32 1013.28 1013.25 1013.25 1013.26
1006.18 1006.81 1007.42 1007.92 1008.27 1008.44 1008.41 1008.23 1007.92 1007.56 1007.21 1006.94 1006.79 1006.80 1006.97 1007.31 1007.78 1008.34 1008.94 1009.56 1010.13 1010.66 1011.11 1011.49 1011.82 1012.11 1012.39 1012.67 1012.96 1013.26 1013.56 1013.84 1014.08 1014.28 1014.40 1014.45 1014.44 1014.38 1014.29 1014.18 1014.09 1014.02 1013.97 1013.95
1006.38 1007.00 1007.57 1008.02 1008.28 1008.33 1008.17 1007.83 1007.38 1006.91 1006.49 1006.19 1006.07 1006.17 1006.47 1006.98 1007.62 1008.35 1009.11 1009.84 1010.50 1011.07 1011.54 1011.91 1012.22 1012.50 1012.77 1013.06 1013.38 1013.72 1014.08 1014.41 1014.71 1014.95 1015.11 1015.18 1015.17 1015.10 1014.98 1014.85 1014.72 1014.62 1014.55 1014.50
1006.43 1007.00 1007.52 1007.89 1008.06 1008.00 1007.72 1007.27 1006.72 1006.17 1005.70 1005.40 1005.33 1005.51 1005.93 1006.58 1007.39 1008.28 1009.19 1010.05 1010.80 1011.44 1011.94 1012.34 1012.66 1012.93 1013.21 1013.50 1013.82 1014.18 1014.55 1014.91 1015.22 1015.47 1015.64 1015.71 1015.70 1015.62 1015.49 1015.35 1015.21 1015.09 1015.01 1014.96
1006.24 1006.72 1007.14 1007.42 1007.50 1007.35 1007.00 1006.48 1005.88 1005.30 1004.83 1004.55 1004.54 1004.81 1005.35 1006.14 1007.09 1008.13 1009.19 1010.17 1011.04 1011.77 1012.35 1012.79 1013.14 1013.43 1013.71 1014.00 1014.32 1014.67 1015.03 1015.37 1015.67 1015.91 1016.06 1016.12 1016.10 1016.02 1015.89 1015.74 1015.61 1015.50 1015.43 1015.37
1005.78 1006.12 1006.41 1006.58 1006.58 1006.37 1005.98 1005.45 1004.85 1004.30 1003.88 1003.67 1003.74 1004.10 1004.76 1005.67 1006.75 1007.93 1009.11 1010.23 1011.22 1012.05 1012.72 1013.24 1013.65 1013.98 1014.28 1014.58 1014.89 1015.21 1015.54 1015.85 1016.12 1016.32 1016.44 1016.49 1016.45 1016.36 1016.24 1016.12 1016.00 1015.92 1015.86 1015.83
1005.07 1005.22 1005.37 1005.43 1005.35 1005.12 1004.74 1004.25 1003.73 1003.26 1002.93 1002.83 1003.00 1003.47 1004.23 1005.24 1006.43 1007.71 1009.01 1010.24 1011.34 1012.28 1013.06 1013.67 1014.15 1014.54 1014.87 1015.18 1015.49 1015.79 1016.09 1016.36 1016.58 1016.74 1016.84 1016.86 1016.82 1016.73 1016.63 1016.52 1016.44 1016.39 1016.37 1016.37
1004.18 1004.14 1004.13 1004.08 1003.96 1003.73 1003.41 1003.02 1002.62 1002.29 1002.11 1002.14 1002.43 1003.00 1003.85 1004.94 1006.20 1007.55 1008.92 1010.23 1011.42 1012.46 1013.33 1014.03 1014.59 1015.05 1015.43 1015.77 1016.08 1016.37 1016.64 1016.88 1017.06 1017.20 1017.26 1017.27 1017.23 1017.16 1017.07 1017.00 1016.95 1016.94 1016.95 1016.99
1003.23 1002.99 1002.83 1002.70 1002.56 1002.38 1002.16 1001.92 1001.70 1001.55 1001.54 1001.72 1002.14 1002.80 1003.72 1004.86 1006.15 1007.53 1008.92 1010.27 1011.51 1012.61 1013.55 1014.32 1014.96 1015.48 1015.91 1016.28 1016.61 1016.91 1017.17 1017.39 1017.55 1017.67 1017.72 1017.73 1017.69 1017.63 1017.57 1017.52 1017.51 1017.53 1017.58 1017.64
1002.30 1001.89 1001.62 1001.44 1001.32 1001.23 1001.15 1001.09 1001.07 1001.13 1001.32 1001.66 1002.20 1002.96 1003.92 1005.07 1006.34 1007.70 1009.08 1010.41 1011.66 1012.77 1013.74 1014.56 1015.25 1015.82 1016.30 1016.71 1017.07 1017.38 1017.64 1017.86 1018.03 1018.14 1018.20 1018.21 1018.18 1018.13 1018.09 1018.06 1018.07 1018.11 1018.18 1018.27
1001.45 1000.92 1000.58 1000.39 1000.33 1000.36 1000.46 1000.60 1000.81 1001.10 1001.48 1001.99 1002.65 1003.48 1004.47 1005.59 1006.83 1008.13 1009.45 1010.72 1011.92 1013.01 1013.98 1014.81 1015.52 1016.13 1016.64 1017.08 1017.46 1017.79 1018.07 1018.29 1018.47 1018.59 1018.65 1018.67 1018.66 1018.62 1018.59 1018.57 1018.58 1018.63 1018.70 1018.79
Thickness
5835 5827 5821 5829 5834 5832 5828 5823 5821 5827 5839 5832 5826 5826 5831 5833 5829 5824 5821 5819 5816 5816 5818 5817 5813 5810 5806 5801 5797 5793 5792 5790 5787 5785 5783 5781 5780 5781 5781 5780 5777 5775 5774 5773
5822 5819 5834 5840 5837 5830 5825 5820 5822 5829 5835 5829 5826 5826 5835 5834 5829 5828 5825 5821 5820 5818 5818 5815 5813 5811 5808 5803 5799 5796 5793 5792 5789 5787 5784 5783 5782 5781 5782 5780 5777 5775 5774 5772
5816 5828 5838 5831 5826 5821 5822 5821 5822 5821 5828 5831 5824 5820 5827 5832 5833 5831 5830 5828 5826 5822 5819 5816 5813 5812 5810 5806 5802 5800 5796 5794 5791 5788 5786 5784 5781 5779 5779 5777 5776 5775 5773 5771
5821 5833 5829 5824 5822 5824 5817 5831 5827 5822 5818 5819 5820 5807 5821 5829 5827 5827 5828 5827 5826 5826 5823 5820 5816 5813 5812 5810 5807 5802 5797 5794 5791 5788 5786 5782 5779 5776 5776 5776 5776 5774 5772 5771
5817 5826 5821 5817 5824 5827 5826 5833 5828 5823 5818 5815 5819 5811 5818 5828 5820 5825 5828 5829 5829 5829 5826 5822 5820 5817 5815 5813 5809 5804 5799 5794 5791 5789 5786 5782 5781 5779 5778 5776 5773 5772 5772 5770
5822 5833 5830 5827 5832 5832 5830 5825 5821 5821 5819 5798 5811 5808 5808 5825 5823 5826 5830 5830 5830 5829 5827 5824 5822 5819 5815 5813 5809 5805 5799 5794 5792 5788 5786 5782 5779 5777 5775 5773 5772 5771 5772 5770
5807 5819 5829 5832 5821 5824 5823 5810 5797 5793 5796 5798 5816 5807 5809 5828 5832 5830 5829 5830 5830 5830 5827 5823 5820 5816 5813 5810 5808 5805 5799 5793 5791 5788 5785 5783 5780 5776 5773 5772 5771 5770 5770 5769
5793 5797 5817 5823 5819 5815 5817 5815 5793 5782 5788 5803 5807 5803 5818 5833 5834 5834 5833 5831 5829 5828 5827 5823 5819 5815 5812 5809 5806 5803 5798 5794 5792 5788 5785 5783 5780 5778 5777 5774 5773 5770 5770 5769
5797 5798 5819 5822 5826 5822 5811 5813 5823 5808 5802 5796 5806 5812 5821 5830 5827 5828 5827 5825 5823 5823 5822 5821 5818 5815 5811 5808 5805 5802 5797 5793 5791 5788 5784 5781 5778 5777 5776 5773 5771 5771 5768 5767
5805 5791 5809 5816 5820 5818 5820 5819 5812 5802 5780 5778 5795 5803 5809 5814 5817 5821 5821 5820 5819 5819 5818 5817 5815 5813 5811 5808 5805 5802 5797 5792 5789 5786 5783 5781 5778 5775 5773 5772 5769 5767 5766 5764
5803 5790 5796 5803 5799 5803 5804 5805 5805 5805 5801 5783 5782 5800 5823 5820 5820 5819 5819 5819 5816 5815 5814 5813 5811 5810 5809 5806 5803 5798 5794 5790 5787 5785 5782 5779 5776 5774 5771 5768 5767 5765 5763 5760
5795 5792 5785 5794 5808 5812 5808 5805 5802 5789 5786 5791 5788 5799 5828 5825 5824 5820 5816 5814 5813 5812 5811 5809 5807 5805 5803 5801 5799 5795 5792 5788 5785 5783 5779 5776 5773 5770 5768 5766 5764 5762 5759 5757
5786 5781 5767 5774 5786 5795 5796 5800 5803 5802 5795 5789 5784 5795 5821 5819 5816 5815 5811 5808 5806 5805 5805 5803 5800 5798 5796 5795 5793 5791 5789 5786 5783 5780 5776 5772 5769 5767 5765 5763 5761 5758 5755 5753
5780 5776 5770 5767 5779 5789 5784 5789 5794 5792 5788 5786 5790 5795 5807 5808 5806 5807 5804 5802 5801 5799 5797 5795 5793 5791 5790 5789 5787 5785 5784 5782 5780 5776 5772 5768 5766 5764 5762 5760 5757 5754 5751 5749
5773 5766 5772 5778 5786 5788 5785 5785 5787 5784 5787 5784 5791 5794 5801 5806 5804 5802 5800 5797 5794 5792 5790 5788 5786 5784 5783 5781 5780 5779 5777 5776 5773 5769 5766 5763 5761 5759 5757 5754 5752 5750 5747 5745
5762 5758 5762 5763 5774 5778 5776 5782 5783 5782 5784 5785 5787 5789 5805 5805 5803 5798 5794 5791 5787 5786 5785 5783 5781 5779 5776 5775 5773 5772 5770 5768 5766 5762 5759 5757 5754 5752 5750 5747 5745 5743 5741 5739
5749 5747 5745 5752 5765 5764 5759 5776 5779 5781 5785 5784 5780 5788 5797 5793 5791 5790 5790 5787 5784 5783 5782 5780 5777 5774 5772 5771 5768 5765 5764 5761 5758 5755 5752 5749 5747 5745 5743 5742 5739 5736 5734 5732
5736 5736 5741 5746 5744 5731 5766 5787 5785 5778 5780 5785 5785 5788 5789 5788 5789 5791 5790 5787 5782 5781 5778 5777 5774 5771 5769 5767 5764 5761 5758 5754 5751 5748 5745 5743 5741 5739 5736 5734 5732 5730 5728 5726
5739 5731 5733 5737 5736 5745 5763 5772 5774 5768 5767 5778 5778 5780 5783 5785 5784 5783 5787 5786 5781 5778 5776 5773 5772 5769 5765 5761 5758 5754 5750 5746 5744 5741 5738 5736 5734 5732 5729 5727 5725 5724 5722 5719
5731 5728 5726 5727 5723 5729 5752 5766 5772 5765 5754 5769 5772 5771 5774 5774 5768 5773 5780 5779 5776 5774 5771 5768 5766 5763 5758 5754 5751 5746 5743 5739 5737 5735 5732 5730 5728 5725 5723 5720 5719 5717 5715 5713
5714 5713 5716 5720 5721 5739 5751 5761 5760 5741 5746 5760 5765 5765 5766 5765 5767 5772 5773 5770 5768 5766 5764 5761 5758 5754 5750 5747 5743 5738 5736 5733 5732 5730 5726 5723 5721 5718 5716 5714 5712 5710 5708 5706
5713 5714 5711 5715 5714 5725 5744 5748 5743 5743 5752 5756 5758 5760 5760 5761 5763 5763 5763 5761 5759 5757 5755 5752 5748 5746 5743 5740 5736 5731 5728 5728 5726 5723 5719 5717 5714 5713 5712 5707 5705 5703 5700 5698
5709 5715 5721 5720 5721 5729 5738 5739 5743 5746 5744 5747 5750 5752 5752 5752 5754 5754 5753 5752 5751 5749 5746 5744 5742 5738 5735 5732 5729 5724 5722 5721 5718 5715 5712 5709 5707 5705 5704 5701 5699 5697 5695 5694
5702 5707 5709 5710 5718 5724 5729 5734 5736 5738 5738 5742 5744 5745 5746 5745 5747 5746 5745 5744 5742 5740 5738 5736 5733 5729 5725 5724 5722 5719 5716 5714 5711 5707 5705 5703 5701 5699 5696 5694 5693 5692 5689 5687
5692 5694 5698 5699 5709 5713 5719 5723 5726 5729 5732 5734 5736 5739 5739 5740 5739 5739 5737 5735 5733 5731 5729 5726 5723 5719 5716 5714 5713 5712 5709 5706 5702 5700 5698 5697 5695 5693 5690 5688 5685 5684 5680 5677
5686 5688 5689 5693 5700 5702 5707 5715 5718 5719 5721 5725 5727 5729 5732 5733 5732 5731 5729 5728 5726 5723 5720 5717 5715 5711 5709 5706 5704 5704 5702 5698 5694 5692 5691 5692 5690 5687 5685 5682 5678 5671 5669 5665